EW8718 Weather Reports


time (UTC)temp
C
wind
direction
speed
KPH
gust
KPH
rain 1hr
cm
rain 24hr
cm
rain mn
cm
humidity
%
barometer
mb
20200229103124 11 108 0.0 0.0 0.00 0.00 0.00 25 1019.7
20200229101554 11 108 0.0 0.0 0.00 0.00 0.00 25 1020.0
20200229100110 11 108 0.0 0.0 0.00 0.00 0.00 25 1020.1
20200229094608 11 108 0.0 0.0 0.00 0.00 0.00 26 1020.4
20200229093130 11 108 1.6 0.0 0.00 0.00 0.00 26 1020.4
20200229091606 10 108 0.0 0.0 0.00 0.00 0.00 26 1020.1
20200229090115 10 108 0.0 0.0 0.00 0.00 0.00 25 1020.3
20200229084617 11 108 0.0 0.0 0.00 0.00 0.00 25 1020.5
20200229083042 11 108 0.0 0.0 0.00 0.00 0.00 25 1020.7
20200229081636 11 108 1.6 0.0 0.00 0.00 0.00 24 1020.8
20200229080036 11 108 0.0 0.0 0.00 0.00 0.00 24 1020.9
20200229074604 12 108 0.0 0.0 0.00 0.00 0.00 24 1021.1
20200229073128 12 108 1.6 0.0 0.00 0.00 0.00 23 1021.3
20200229071546 13 108 0.0 0.0 0.00 0.00 0.00 22 1021.7
20200229070052 15 108 0.0 0.0 0.00 0.00 0.00 18 1021.8
20200229064537 15 108 3.2 0.0 0.00 0.00 0.00 17 1021.8
20200229063034 16 108 6.4 0.0 0.00 0.00 0.00 16 1022.0
20200229061551 15 100 6.4 0.0 0.00 0.00 0.00 17 1022.2
20200229060018 13 321 0.0 0.0 0.00 0.00 0.00 21 1022.3
20200229054533 13 321 0.0 0.0 0.00 0.00 0.00 21 1022.3
20200229053016 13 321 0.0 0.0 0.00 0.00 0.00 20 1022.5
20200229051519 13 322 0.0 0.0 0.00 0.00 0.00 20 1022.3
20200229050020 13 322 1.6 0.0 0.00 0.00 0.00 19 1022.4
20200229044548 14 322 3.2 0.0 0.00 0.00 0.00 19 1022.6
20200229043015 15 319 1.6 0.0 0.00 0.00 0.00 19 1022.6
20200229041520 15 319 1.6 0.0 0.00 0.00 0.00 19 1022.4
20200229040019 15 318 1.6 0.0 0.00 0.00 0.00 20 1022.3
20200229034525 16 319 3.2 0.0 0.00 0.00 0.00 22 1022.3
20200229033009 16 318 1.6 0.0 0.00 0.00 0.00 22 1022.1
20200229031511 16 318 0.0 0.0 0.00 0.00 0.00 23 1021.6
20200229030026 16 318 0.0 0.0 0.00 0.00 0.00 23 1021.3
20200229024525 16 318 0.0 0.0 0.00 0.00 0.00 21 1021.2
20200229023017 17 318 0.0 0.0 0.00 0.00 0.00 20 1021.1
20200229021606 18 318 0.0 0.0 0.00 0.00 0.00 19 1021.0
20200229020018 18 318 0.0 0.0 0.00 0.00 0.00 18 1020.9
20200229014530 18 318 0.0 0.0 0.00 0.00 0.00 18 1020.8
20200229013006 19 318 1.6 0.0 0.00 0.00 0.00 17 1020.7
20200229011518 19 307 0.0 0.0 0.00 0.00 0.00 17 1020.6
20200229010015 20 307 0.0 0.0 0.00 0.00 0.00 15 1020.6
20200229004504 21 307 0.0 0.0 0.00 0.00 0.00 15 1020.6
20200229003003 21 55 0.0 0.0 0.00 0.00 0.00 14 1020.7
20200229001510 21 55 0.0 0.0 0.00 0.00 0.00 14 1020.8
20200229000011 21 55 3.2 0.0 0.00 0.00 0.00 14 1020.8
20200228234504 21 56 3.2 0.0 0.00 0.00 0.00 14 1020.6
20200228233001 21 54 1.6 0.0 0.00 0.00 0.00 14 1020.9
20200228231659 22 55 3.2 0.0 0.00 0.00 0.00 13 1021.0
20200228230131 22 42 0.0 0.0 0.00 0.00 0.00 14 1021.0
20200228224702 22 41 1.6 0.0 0.00 0.00 0.00 15 1021.2
20200228223158 21 13 4.8 0.0 0.00 0.00 0.00 15 1021.2
20200228221749 21 32 3.2 0.0 0.00 0.00 0.00 15 1021.4
20200228220148 22 32 3.2 0.0 0.00 0.00 0.00 15 1021.5
20200228214637 22 75 1.6 0.0 0.00 0.00 0.00 15 1021.7
20200228213139 22 15 4.8 0.0 0.00 0.00 0.00 16 1021.8
20200228211740 21 85 1.6 0.0 0.00 0.00 0.00 16 1022.1
20200228210125 21 80 4.8 0.0 0.00 0.00 0.00 16 1022.4
20200228204704 21 55 4.8 0.0 0.00 0.00 0.00 16 1022.6
20200228203128 21 47 1.6 0.0 0.00 0.00 0.00 16 1023.0
20200228201602 21 51 1.6 0.0 0.00 0.00 0.00 16 1023.1
20200228200054 21 16 1.6 0.0 0.00 0.00 0.00 16 1023.3
20200228194638 20 78 3.2 0.0 0.00 0.00 0.00 16 1023.7
20200228193038 20 19 1.6 0.0 0.00 0.00 0.00 16 1023.8
20200228191613 20 73 1.6 0.0 0.00 0.00 0.00 17 1024.2
20200228190041 19 74 3.2 0.0 0.00 0.00 0.00 17 1024.7
20200228184640 18 53 3.2 0.0 0.00 0.00 0.00 17 1025.1
20200228183025 18 46 3.2 0.0 0.00 0.00 0.00 18 1025.6
20200228181518 18 50 3.2 0.0 0.00 0.00 0.00 18 1025.9
20200228180027 18 13 1.6 0.0 0.00 0.00 0.00 19 1026.2
20200228174548 17 11 4.8 0.0 0.00 0.00 0.00 19 1026.6
20200228173013 17 355 1.6 0.0 0.00 0.00 0.00 20 1026.9
20200228171505 16 355 1.6 0.0 0.00 0.00 0.00 21 1027.0
20200228170002 15 5 0.0 0.0 0.00 0.00 0.00 22 1027.2
20200228164627 -17 0.0 0.0 0.00 0.00 0.00 1027.4
20200228163140 14 302 1.6 0.0 0.00 0.00 0.00 23 1027.4
20200228161823 13 302 1.6 0.0 0.00 0.00 0.00 23 1027.4
20200228160116 12 302 1.6 0.0 0.00 0.00 0.00 24 1027.4
20200228154710 11 290 1.6 0.0 0.00 0.00 0.00 26 1027.3
20200228153139 10 290 4.8 0.0 0.00 0.00 0.00 27 1027.1
20200228151612 10 290 4.8 0.0 0.00 0.00 0.00 28 1027.1
20200228150152 8 294 4.8 0.0 0.00 0.00 0.00 29 1026.8
20200228144541 8 295 4.8 0.0 0.00 0.00 0.00 30 1026.9
20200228143039 7 295 4.8 0.0 0.00 0.00 0.00 31 1026.9
20200228141555 6 295 3.2 0.0 0.00 0.00 0.00 34 1026.7
20200228140038 6 298 3.2 0.0 0.00 0.00 0.00 35 1026.7
20200228134553 6 313 4.8 0.0 0.00 0.00 0.00 35 1026.5
20200228133050 5 317 4.8 0.0 0.00 0.00 0.00 34 1026.3
20200228131612 6 317 4.8 0.0 0.00 0.00 0.00 33 1026.2
20200228130025 6 317 6.4 0.0 0.00 0.00 0.00 32 1026.0
20200228124512 7 313 3.2 0.0 0.00 0.00 0.00 30 1025.8
20200228123014 7 312 4.8 0.0 0.00 0.00 0.00 31 1025.6
20200228121504 7 5 1.6 0.0 0.00 0.00 0.00 32 1025.6
20200228120011 7 13 1.6 0.0 0.00 0.00 0.00 33 1025.5
20200228114503 7 14 1.6 0.0 0.00 0.00 0.00 33 1025.3
20200228113001 7 14 0.0 0.0 0.00 0.00 0.00 34 1025.0
20200228111501 7 13 0.0 0.0 0.00 0.00 0.00 35 1024.8
20200228110129 7 14 0.0 0.0 0.00 0.00 0.00 34 1024.6